"Pseudo-MPEC" for P115wcT

Created 2020 Sep 19 22:07:20 UT using Find_Orb

Click here for an explanation of pseudo-MPECs

 
 Astrometry: 
     P115wcT  C2020 09 11!:0GWw3A^y1:AstrometryZ'xWe2whVeHvr+%_[p[redacted;'2F51
     P115wcT  C2020 09 11QHp*30do/v4'.1oPq;I#tKUBfj`nVkLu*79yi3'RxvpOmeRp`WgoF51
     P115wcT  C2020 09 11ySclick:9Gp*CYH4M!44;nf7?;^*m/j%v:$OTrQJVoGjq[=ro3,0F51
     P115wcT  C2020 09 11\r!!hhere:+5IP:yjsNDkYforH!NJkE+.qUv#explanation?XPuF51
     P115wcT ^C2020 09 14.58693503 50 04.126-35 43 59.66   ~9EKM 20.67GVNEOCP568
     P115wcT ^C2020 09 14.58801203 50 04.178-35 44 00.56   ~9EKM 20.63GVNEOCP568
     P115wcT ^C2020 09 14.58895903 50 04.221-35 44 01.32   ~9EKM 20.69GVNEOCP568

Station data:
(568) Mauna Kea  (N19.826116 W155.472200)  US/Hawaii.
(F51) Pan-STARRS 1, Haleakala  (N20.707235 W156.255910)  US/Hawaii.
   Observers N. Primak, A. Schultz, S. Watters, J. Thiel, T. Goggia. Measurer
   PS1 Science Consortium. 1.8-m Ritchey-Chrétien + CCD.

Orbital elements:  P115wcT
   Perihelion 2020 Jul 23.256606 +/- 80.8 TT =  6:09:30 (JD 2459053.756606)
Epoch 2020 Sep 14.0 TT = JDT 2459106.5   Earth MOID: 0.3898   Ma: 0.0112
M  14.81954897 +/- 35               (J2000 ecliptic)          AutoNEOCP
n   0.28097450 +/- 0.246            Peri.  216.24733 +/- 110
a   2.30865006 +/- 1.35             Node   113.74309 +/- 25
e   0.4127895 +/- 0.265             Incl.   24.95978 +/- 7
P   3.51                   H 19.4   G  0.15   U 11.8  SR
q 1.35566349 +/- 0.551    Q 3.26163663 +/- 43.5
From 7 observations 2020 Sept. 11-14; mean residual 0".11
Residuals in arcseconds: 
200911 F51  .06-  .28-    200911 F51  .06+  .18+    200914 568  .05+  .03-    
200911 F51  .10-  .06-    200914 568  .07-  .04+    
200911 F51  .10+  .16+    200914 568  .01+  .01-    

Ephemerides (geocentric):
Date (UTC) HH   RA              Dec         delta   r     elong  mag " sig PA
---- -- -- --  -------------   -----------  ------ ------ -----  --- ---- ---
2020 09 19 22  03 53 21.620   -36 49 01.33  .73410 1.4622 113.6 21.1  315  34
2020 09 19 23  03 53 22.708   -36 49 29.92  .73416 1.4623 113.6 21.1  319  34
2020 09 20 00  03 53 23.790   -36 49 58.47  .73423 1.4624 113.6 21.1  323  34
2020 09 20 01  03 53 24.864   -36 50 26.99  .73430 1.4626 113.6 21.1  327  34
2020 09 20 02  03 53 25.932   -36 50 55.48  .73437 1.4627 113.6 21.1  331  34
2020 09 20 03  03 53 26.992   -36 51 23.93  .73444 1.4629 113.7 21.1  336  34
2020 09 20 04  03 53 28.046   -36 51 52.35  .73451 1.4630 113.7 21.1  340  34
2020 09 20 05  03 53 29.092   -36 52 20.74  .73457 1.4631 113.7 21.1  344  34
2020 09 20 06  03 53 30.131   -36 52 49.10  .73464 1.4633 113.7 21.1  348  34
2020 09 20 07  03 53 31.164   -36 53 17.42  .73471 1.4634 113.7 21.1  352  34
2020 09 20 08  03 53 32.189   -36 53 45.70  .73478 1.4636 113.7 21.1  356  34
2020 09 20 09  03 53 33.207   -36 54 13.96  .73485 1.4637 113.7 21.1  361  34
2020 09 20 10  03 53 34.218   -36 54 42.18  .73492 1.4639 113.7 21.1  365  34
2020 09 20 11  03 53 35.222   -36 55 10.36  .73498 1.4640 113.8 21.1  369  34
2020 09 20 12  03 53 36.219   -36 55 38.51  .73505 1.4641 113.8 21.1  373  35
2020 09 20 13  03 53 37.209   -36 56 06.63  .73512 1.4643 113.8 21.1  378  35
2020 09 20 14  03 53 38.192   -36 56 34.72  .73519 1.4644 113.8 21.1  382  35
2020 09 20 15  03 53 39.168   -36 57 02.77  .73526 1.4646 113.8 21.1  386  35
2020 09 20 16  03 53 40.137   -36 57 30.78  .73533 1.4647 113.8 21.1  391  35
2020 09 20 17  03 53 41.099   -36 57 58.77  .73540 1.4649 113.8 21.1  395  35
2020 09 20 18  03 53 42.054   -36 58 26.71  .73546 1.4650 113.8 21.1  400  35
2020 09 20 19  03 53 43.002   -36 58 54.63  .73553 1.4651 113.9 21.1  404  35
2020 09 20 20  03 53 43.943   -36 59 22.51  .73560 1.4653 113.9 21.1  409  35
2020 09 20 21  03 53 44.876   -36 59 50.35  .73567 1.4654 113.9 21.1  413  35
2020 09 20 22  03 53 45.803   -37 00 18.17  .73574 1.4656 113.9 21.1  418  35
2020 09 20 23  03 53 46.723   -37 00 45.94  .73581 1.4657 113.9 21.1  422  35
2020 09 21 00  03 53 47.636   -37 01 13.69  .73588 1.4659 113.9 21.1  427  35
2020 09 21 01  03 53 48.541   -37 01 41.39  .73595 1.4660 113.9 21.1  431  35
2020 09 21 02  03 53 49.440   -37 02 09.07  .73602 1.4661 113.9 21.1  436  35
2020 09 21 03  03 53 50.332   -37 02 36.71  .73608 1.4663 114.0 21.1  441  35
2020 09 21 04  03 53 51.216   -37 03 04.31  .73615 1.4664 114.0 21.1  445  35
2020 09 21 05  03 53 52.094   -37 03 31.88  .73622 1.4666 114.0 21.1  450  35
2020 09 21 06  03 53 52.965   -37 03 59.42  .73629 1.4667 114.0 21.1  455  35
2020 09 21 07  03 53 53.828   -37 04 26.92  .73636 1.4669 114.0 21.1  460  35
2020 09 21 08  03 53 54.685   -37 04 54.39  .73643 1.4670 114.0 21.1  464  35
2020 09 21 09  03 53 55.535   -37 05 21.82  .73650 1.4671 114.0 21.1  469  35
2020 09 21 10  03 53 56.377   -37 05 49.21  .73657 1.4673 114.0 21.1  474  35
2020 09 21 11  03 53 57.213   -37 06 16.57  .73664 1.4674 114.1 21.1  479  35
2020 09 21 12  03 53 58.041   -37 06 43.90  .73671 1.4676 114.1 21.1  484  35
2020 09 21 13  03 53 58.863   -37 07 11.19  .73678 1.4677 114.1 21.1  489  35
2020 09 21 14  03 53 59.678   -37 07 38.45  .73685 1.4679 114.1 21.1  493  35
2020 09 21 15  03 54 00.485   -37 08 05.67  .73692 1.4680 114.1 21.1  498  35
2020 09 21 16  03 54 01.286   -37 08 32.85  .73699 1.4682 114.1 21.1  503  35
2020 09 21 17  03 54 02.079   -37 09 00.00  .73706 1.4683 114.1 21.1  508  35
2020 09 21 18  03 54 02.866   -37 09 27.12  .73712 1.4684 114.1 21.1  513  35
2020 09 21 19  03 54 03.646   -37 09 54.20  .73719 1.4686 114.2 21.1  518  35
2020 09 21 20  03 54 04.418   -37 10 21.24  .73726 1.4687 114.2 21.1  523  35
2020 09 21 21  03 54 05.184   -37 10 48.25  .73733 1.4689 114.2 21.1  528  35